Theta_e
353 353 354 353 354 354 351 351 352 354 354 355 357 356 355 354 354 354 354 352 355 353 354 355 354 354 351 349 350 351 351 350 351 348 351 352 356 356 358 358 353 351 348
353 353 353 353 352 352 352 351 351 352 355 354 354 355 357 357 357 355 352 352 354 354 355 354 354 352 356 354 351 352 350 352 352 353 353 353 353 355 357 357 353 349 351
351 352 352 353 352 351 352 352 351 350 352 352 353 355 356 357 357 358 355 353 354 355 355 355 353 353 355 352 354 353 351 353 352 352 353 352 352 352 355 352 352 347 346
350 351 351 351 352 352 352 352 353 352 351 351 352 353 354 356 356 356 356 357 356 354 356 356 354 351 353 355 356 356 356 357 355 354 353 351 349 349 351 349 346 344 346
351 351 351 351 351 351 352 352 352 353 352 352 351 350 351 352 353 356 356 356 357 357 356 357 354 351 349 351 350 350 351 353 353 350 349 347 346 348 349 348 346 346 347
342 349 352 351 352 352 353 354 353 353 354 353 353 351 349 347 346 351 354 355 356 357 356 358 357 354 353 348 347 345 347 352 352 349 344 344 349 350 348 347 349 349 350
330 336 341 346 351 352 352 352 353 353 353 353 354 353 352 351 345 346 349 351 353 355 356 356 356 352 354 355 354 350 348 347 347 351 353 352 351 351 352 355 354 355 354
326 328 330 336 340 346 351 352 352 353 353 353 353 354 353 353 351 348 345 349 351 352 354 355 356 354 352 355 355 355 354 352 353 353 352 353 353 353 355 356 357 357 355
326 325 325 328 331 335 339 344 349 353 353 352 353 353 354 354 352 350 348 347 344 349 351 354 355 355 355 355 354 352 353 351 348 350 348 348 351 350 350 352 351 349 346
327 325 323 324 327 330 333 336 339 345 349 352 352 352 353 354 354 353 350 348 348 343 343 350 352 353 354 354 354 353 353 350 348 348 350 351 352 349 348 349 351 350 346
325 326 326 324 324 325 327 330 333 339 343 347 350 351 352 353 354 353 352 349 349 349 347 342 342 345 345 346 350 353 353 349 347 348 350 350 350 350 351 354 353 352 349
318 323 326 326 324 323 327 327 326 333 337 346 344 346 349 352 352 351 352 350 349 350 351 350 350 348 345 345 344 344 346 350 347 342 343 345 346 345 344 346 352 357 355
315 318 323 325 325 324 323 323 328 332 334 338 345 346 345 347 352 353 352 350 349 347 350 352 352 352 352 350 349 347 347 347 347 344 344 346 346 345 346 348 354 358 359
313 316 319 322 325 324 323 321 321 325 329 335 338 343 345 345 347 349 352 353 351 348 346 347 350 351 352 352 351 349 348 348 348 347 348 348 347 347 346 350 352 353 355
312 314 317 320 322 324 324 322 320 320 322 324 329 335 339 342 346 349 349 351 355 350 347 349 350 350 352 353 352 352 352 352 351 351 352 352 351 349 348 349 351 352 353
312 313 316 318 320 321 322 322 322 320 320 322 325 328 330 333 335 340 343 347 352 353 351 350 354 355 356 356 356 354 353 353 353 354 353 353 352 351 347 347 350 353 353
311 312 315 316 317 319 321 322 322 322 321 322 326 329 330 332 333 338 340 346 348 351 351 354 354 355 357 358 358 355 355 355 355 353 351 351 351 348 347 350 352 354 355
310 311 312 315 316 318 319 321 321 322 322 323 326 329 328 329 334 338 340 341 340 349 351 354 356 356 357 358 356 355 355 355 357 356 352 351 350 350 351 353 353 356 359
311 311 312 314 315 317 318 318 319 321 324 325 325 324 327 329 328 333 337 329 342 347 346 348 353 355 355 356 357 356 356 356 356 356 356 358 358 357 355 355 358 359 359
310 310 312 313 313 315 317 318 319 321 323 324 324 324 324 322 322 326 330 333 337 349 351 349 348 350 353 354 356 356 356 356 357 356 357 358 358 358 359 359 359 360 360
307 309 311 311 313 315 316 317 319 320 321 321 322 322 319 315 315 321 325 330 339 343 347 348 349 349 349 351 353 354 355 355 356 357 356 355 355 356 357 357 356 357 357
305 307 309 311 314 314 316 316 316 318 318 318 319 319 314 313 314 314 316 320 325 331 338 340 341 337 338 339 340 340 343 343 342 343 343 346 348 346 347 348 350 351 353
305 306 308 310 311 313 313 312 313 315 316 316 314 313 310 308 307 308 309 309 312 316 319 325 332 334 331 328 325 327 327 328 330 330 332 333 337 338 338 340 343 347 351
302 303 304 306 308 310 312 310 310 310 308 310 309 308 304 303 303 302 304 304 306 310 311 311 312 320 314 313 316 320 323 324 322 322 323 325 330 332 335 335 334 336 337
298 299 300 301 303 304 305 306 306 307 306 304 303 301 300 300 300 299 300 300 301 303 304 305 309 309 311 312 314 316 317 320 322 319 321 323 326 329 333 334 333 335 334
296 296 296 297 297 299 299 300 301 301 300 298 298 297 297 297 297 296 297 298 298 299 301 303 304 306 307 308 310 311 314 317 319 320 319 319 322 322 325 326 326 327 327
Wind_Speed
20 21 20 22 20 18 19 18 18 16 13 13 12 12 12 12 12 11 8 6 9 8 8 8 9 9 10 9 8 9 9 9 12 14 13 12 15 14 15 14 14 13 14
16 18 20 20 19 19 19 19 17 19 16 15 14 15 14 13 13 14 12 10 10 9 9 10 10 10 10 10 11 9 11 10 12 14 14 15 14 14 14 15 13 14 15
14 15 17 19 21 22 20 19 18 18 19 18 16 16 16 15 16 16 16 14 13 12 12 12 12 11 12 12 10 10 11 10 11 15 15 15 14 14 13 13 11 14 13
8 11 14 17 19 20 20 20 19 19 18 19 20 19 18 16 15 17 17 16 16 15 14 15 14 14 14 13 13 12 12 13 14 15 15 14 14 12 12 13 15 14 15
7 9 12 13 16 17 17 19 21 20 20 20 20 21 21 20 20 19 19 19 17 16 15 16 16 15 16 16 15 14 13 14 15 16 16 15 14 12 13 14 15 15 15
9 6 8 10 10 13 15 17 18 22 22 21 22 23 24 25 26 25 23 21 20 19 18 18 18 18 19 20 20 19 18 15 16 16 17 16 14 15 14 14 15 16 14
14 10 9 6 6 12 14 16 18 20 20 23 23 24 26 26 27 28 30 26 23 22 21 20 20 21 21 19 18 20 22 23 24 21 20 20 20 16 15 15 15 16 17
17 15 14 11 7 7 10 16 18 18 20 21 23 24 26 27 29 31 33 30 28 27 25 24 23 23 21 21 20 20 20 20 20 20 22 24 23 18 15 15 15 16 18
16 17 17 15 14 7 9 13 13 16 18 21 23 24 25 26 27 31 33 30 32 32 31 30 29 28 28 27 27 25 23 24 23 24 26 27 28 26 24 19 19 19 19
17 18 20 19 19 19 12 14 14 14 19 21 22 25 26 27 26 29 32 28 30 32 33 34 37 36 34 33 32 28 27 28 25 23 19 22 24 25 25 28 23 21 21
16 17 16 18 18 13 12 14 16 15 17 13 21 23 24 25 26 28 31 32 31 31 33 33 35 37 40 42 41 34 33 28 26 24 24 25 25 24 22 21 21 23 23
17 18 17 16 15 14 14 17 15 12 15 16 17 18 19 20 27 31 32 36 36 33 33 32 32 34 36 38 38 40 39 35 29 30 28 27 26 24 23 22 22 23 22
19 18 18 17 16 15 14 18 16 11 12 14 17 18 22 20 18 27 32 38 40 41 36 34 33 30 27 31 33 34 34 28 29 30 30 29 27 26 22 20 19 19 22
22 21 19 19 18 18 15 14 16 15 10 13 15 20 21 19 22 25 25 28 35 39 42 38 35 31 29 28 25 27 30 29 28 28 29 29 27 25 24 22 22 22 22
22 22 21 21 20 19 19 17 17 20 18 18 15 20 19 21 24 23 18 23 23 27 30 25 27 29 30 29 28 29 27 24 28 29 28 27 27 26 26 24 23 23 23
24 23 22 20 19 19 20 22 19 22 20 21 21 21 25 31 36 36 42 37 28 32 19 25 27 29 29 28 27 26 27 28 28 26 27 28 29 28 27 25 25 24 24
26 25 23 20 22 20 19 20 22 20 21 21 21 19 20 28 29 30 37 35 41 38 29 29 26 29 29 28 22 23 24 25 26 27 28 28 27 27 26 25 25 25 24
26 26 26 23 23 22 20 19 20 20 21 20 18 17 22 27 23 24 29 29 28 33 32 28 27 26 25 17 20 21 22 23 25 26 26 26 26 26 25 26 24 23 23
26 26 25 23 23 23 21 20 21 21 21 22 19 20 18 21 26 25 25 27 24 23 24 25 25 25 23 23 24 24 24 24 24 25 26 25 25 25 26 24 23 27 24
24 26 25 22 23 24 22 21 19 20 20 21 20 18 15 22 20 18 20 19 16 17 19 19 21 23 26 26 25 23 24 24 24 26 26 25 26 24 24 23 24 24 22
20 21 19 22 24 23 22 20 17 16 18 19 19 16 16 15 21 20 19 17 15 15 13 9 12 12 17 21 22 24 24 22 25 24 22 28 24 23 22 22 23 22 23
18 20 22 24 22 21 20 16 16 16 17 17 18 17 19 13 16 18 16 16 13 12 18 18 16 13 11 15 19 19 18 19 20 19 18 18 19 19 19 21 21 19 18
19 19 21 22 21 19 15 15 15 14 15 15 15 13 13 11 13 15 10 12 10 10 10 12 15 12 15 16 16 16 15 15 16 17 16 15 14 13 11 12 11 13 18
19 19 19 19 19 18 15 12 14 13 14 14 13 10 10 10 10 12 7 9 9 7 7 8 10 13 11 12 10 6 7 8 10 7 8 7 6 5 5 6 7 6 8
14 15 16 15 16 15 16 14 14 13 10 10 9 8 8 8 7 6 3 4 5 6 7 7 9 8 6 4 5 5 4 2 3 4 1 2 3 2 2 2 2 2 5
12 11 11 11 10 10 11 12 12 9 8 7 6 6 5 3 3 2 3 5 5 8 10 13 15 15 12 9 10 9 8 7 5 4 5 7 5 3 2 2 4 3 5
Wind_Direction
220 222 220 215 216 218 218 219 219 218 217 220 214 212 207 202 203 209 224 220 219 228 235 234 240 245 251 255 261 268 275 280 286 297 309 313 318 318 321 325 327 324 332
230 227 227 224 212 217 225 222 217 220 219 219 223 221 218 221 211 206 212 227 230 233 236 240 243 242 242 252 257 265 281 286 284 294 299 302 307 313 313 317 322 326 327
222 229 230 228 223 218 224 226 224 220 223 224 225 227 230 225 218 218 217 221 229 237 240 241 245 241 242 252 249 266 265 265 268 277 294 296 303 306 312 314 316 323 326
266 229 237 236 235 234 228 226 229 225 222 224 224 225 228 236 229 225 224 225 227 235 240 240 244 242 244 246 246 253 261 269 269 270 278 290 296 302 297 309 320 323 330
281 263 247 235 236 240 237 233 231 231 229 226 225 226 229 233 236 230 228 229 234 236 237 232 237 240 240 239 246 246 257 258 267 273 279 285 290 309 314 310 305 318 322
11 321 280 275 256 241 245 241 238 235 233 230 229 229 229 231 234 234 231 236 238 239 240 233 233 238 242 244 244 246 247 252 259 272 281 285 291 285 293 303 311 314 312
13 5 343 337 284 265 256 249 245 241 239 237 235 232 233 231 234 235 236 234 240 241 242 241 238 239 236 240 248 251 252 251 251 254 265 268 277 278 285 289 293 301 299
12 9 9 350 332 302 301 260 252 248 245 243 241 238 239 237 235 234 237 236 238 241 243 242 240 243 241 239 242 246 250 255 258 258 254 259 263 268 266 274 283 287 290
360 355 355 357 350 349 318 296 280 260 251 249 246 242 241 243 241 239 235 236 241 242 240 240 241 242 243 242 242 250 254 257 261 259 260 261 259 260 258 269 272 276 284
340 343 341 341 349 4 336 300 292 283 266 254 255 249 244 245 243 243 239 234 238 241 241 241 242 240 243 243 242 245 250 253 259 264 264 263 267 267 261 251 253 259 270
325 323 329 334 332 328 334 318 294 277 280 262 252 253 252 249 250 245 246 235 237 238 240 242 243 245 247 245 244 242 243 252 257 262 262 263 261 259 254 254 246 245 259
312 310 307 310 317 313 315 309 316 306 268 268 262 267 256 258 256 251 248 244 237 239 243 243 245 246 245 248 249 250 249 247 256 261 259 258 258 258 258 252 247 245 249
299 296 296 294 295 300 301 304 304 301 303 280 271 265 265 266 273 267 253 248 247 239 242 244 251 253 253 251 249 252 257 250 247 249 251 254 256 259 262 260 255 250 254
290 288 286 286 286 286 283 283 289 287 297 299 279 270 269 258 252 261 262 254 249 249 246 243 243 247 248 249 248 248 246 242 238 241 248 254 257 256 253 250 254 256 250
281 281 280 280 282 284 281 283 287 287 285 288 278 286 282 273 262 273 291 282 257 248 241 242 241 239 241 241 240 240 239 236 238 241 248 252 253 253 252 252 252 256 257
275 271 268 274 278 280 285 289 286 297 301 297 282 270 273 271 273 272 280 274 274 265 243 237 240 238 237 237 237 237 237 238 241 242 243 247 251 251 251 251 251 251 256
266 267 267 264 268 272 279 283 291 290 297 300 297 290 287 290 293 281 279 277 257 262 242 244 243 243 241 241 232 228 233 235 244 247 250 251 250 251 251 252 257 255 249
262 262 262 261 265 267 270 276 281 287 293 295 288 289 295 294 290 289 291 283 249 246 238 235 240 240 245 242 233 232 232 231 238 246 245 247 249 249 250 250 251 255 253
265 258 256 258 260 266 273 273 275 278 279 283 287 292 295 292 304 297 295 254 235 236 239 229 231 243 245 242 239 236 235 235 237 238 240 247 249 254 255 251 249 246 251
270 262 260 260 262 264 262 263 265 270 278 284 290 297 310 314 315 311 306 277 246 239 229 240 247 239 247 252 251 244 237 233 231 235 239 243 245 250 255 246 243 247 243
287 276 258 252 257 258 259 262 266 266 272 278 283 295 296 304 305 301 305 303 245 246 238 230 234 238 249 257 257 252 246 244 240 234 235 243 251 255 254 252 250 253 250
277 273 267 259 258 257 255 258 262 262 265 273 284 293 300 312 295 296 296 284 274 249 240 237 240 249 264 264 259 254 250 244 241 245 247 240 239 245 252 252 253 256 260
280 274 272 271 266 263 261 262 264 263 271 271 276 285 292 296 296 291 291 282 262 245 243 234 225 230 251 256 259 251 248 248 255 253 250 250 245 248 254 260 261 264 260
286 280 279 278 276 280 273 262 267 264 263 270 272 275 279 290 286 281 281 280 261 231 218 200 204 166 202 214 221 237 246 239 231 230 234 244 232 239 240 253 266 275 288
302 293 284 277 275 276 279 275 269 268 266 267 270 267 267 272 281 287 286 238 212 171 165 156 127 124 141 135 120 105 74 71 146 170 170 181 116 33 288 273 301 321 346
318 302 296 290 285 280 276 274 269 268 265 257 252 249 238 215 204 235 151 131 124 124 124 114 110 107 100 90 87 86 94 102 117 109 79 57 38 36 354 350 2 3 10